KB7YYZ Weather Reports


time (UTC)temp
C
wind
direction
speed
KPH
gust
KPH
rain 1hr
cm
rain 24hr
cm
rain mn
cm
humidity
%
barometer
mb
20230208170550 17 225 1.6 3.2 0.00 0.00 0.00 31 1022.7
20230208170047 17 225 0.0 3.2 0.00 0.00 0.00 32 1022.7
20230208165551 17 248 0.0 1.6 0.00 0.00 0.00 33 1022.7
20230208165050 17 180 0.0 1.6 0.00 0.00 0.00 34 1022.7
20230208164547 17 135 0.0 1.6 0.00 0.00 0.00 34 1022.7
20230208164050 16 68 1.6 1.6 0.00 0.00 0.00 35 1022.7
20230208163547 16 68 1.6 1.6 0.00 0.00 0.00 35 1022.7
20230208163050 16 68 1.6 1.6 0.00 0.00 0.00 35 1022.7
20230208162551 15 68 1.6 3.2 0.00 0.00 0.00 36 1023.0
20230208162047 15 113 1.6 3.2 0.00 0.00 0.00 37 1022.9
20230208161547 15 90 1.6 1.6 0.00 0.00 0.00 38 1022.9
20230208161050 15 135 1.6 1.6 0.00 0.00 0.00 39 1022.9
20230208160547 14 68 1.6 3.2 0.00 0.00 0.00 40 1023.0
20230208160047 13 45 1.6 1.6 0.00 0.00 0.00 41 1022.9
20230208155548 13 45 1.6 4.8 0.00 0.00 0.00 43 1022.9
20230208155048 12 68 1.6 4.8 0.00 0.00 0.00 43 1022.9
20230208154550 12 45 1.6 4.8 0.00 0.00 0.00 45 1022.9
20230208154050 11 113 3.2 3.2 0.00 0.00 0.00 46 1022.9
20230208153547 11 68 3.2 4.8 0.00 0.00 0.00 48 1022.9
20230208153050 10 90 3.2 4.8 0.00 0.00 0.00 49 1022.9
20230208152551 9 68 1.6 3.2 0.00 0.00 0.00 50 1022.8
20230208152050 8 90 3.2 3.2 0.00 0.00 0.00 51 1022.8
20230208151547 7 113 3.2 3.2 0.00 0.00 0.00 52 1022.8
20230208151050 6 68 3.2 3.2 0.00 0.00 0.00 53 1022.8
20230208150550 6 68 3.2 4.8 0.00 0.00 0.00 53 1022.8
20230208150048 5 113 3.2 4.8 0.00 0.00 0.00 54 1022.8
20230208145548 3 68 3.2 4.8 0.00 0.00 0.00 54 1022.8
20230208145048 3 90 3.2 6.4 0.00 0.00 0.00 54 1022.8
20230208144550 2 68 3.2 4.8 0.00 0.00 0.00 54 1022.4
20230208144047 2 68 1.6 3.2 0.00 0.00 0.00 55 1022.5
20230208143547 2 45 1.6 1.6 0.00 0.00 0.00 55 1022.5
20230208143047 1 45 3.2 3.2 0.00 0.00 0.00 55 1022.5
20230208142551 1 45 3.2 3.2 0.00 0.00 0.00 55 1022.4
20230208142047 1 68 1.6 3.2 0.00 0.00 0.00 55 1022.4
20230208141550 1 68 3.2 3.2 0.00 0.00 0.00 55 1022.4
20230208141047 1 68 3.2 3.2 0.00 0.00 0.00 55 1022.5
20230208140550 1 68 3.2 3.2 0.00 0.00 0.00 55 1022.5
20230208140050 1 68 3.2 3.2 0.00 0.00 0.00 55 1022.5
20230208135548 1 68 3.2 3.2 0.00 0.00 0.00 55 1022.5
20230208135050 1 113 3.2 3.2 0.00 0.00 0.00 55 1022.6
20230208134548 1 90 3.2 3.2 0.00 0.00 0.00 55 1021.4
20230208134050 1 90 1.6 4.8 0.00 0.00 0.00 55 1021.5
20230208133547 1 45 0.0 1.6 0.00 0.00 0.00 54 1021.5
20230208133050 1 315 0.0 0.0 0.00 0.00 0.00 54 1021.5
20230208132551 1 68 0.0 1.6 0.00 0.00 0.00 54 1020.8
20230208132051 1 113 0.0 1.6 0.00 0.00 0.00 54 1020.9
20230208131550 1 113 0.0 1.6 0.00 0.00 0.00 54 1020.9
20230208131047 2 68 3.2 1.6 0.00 0.00 0.00 54 1020.9
20230208130547 2 68 3.2 1.6 0.00 0.00 0.00 54 1021.0
20230208130047 2 68 3.2 3.2 0.00 0.00 0.00 54 1021.0
20230208125548 1 45 3.2 4.8 0.00 0.00 0.00 54 1021.1
20230208125050 2 113 1.6 3.2 0.00 0.00 0.00 54 1021.1
20230208124550 2 68 1.6 3.2 0.00 0.00 0.00 53 1021.2
20230208124047 2 90 1.6 3.2 0.00 0.00 0.00 53 1021.2
20230208123550 2 68 1.6 1.6 0.00 0.00 0.00 53 1021.3
20230208123050 2 68 1.6 4.8 0.00 0.00 0.00 53 1021.3
20230208122548 2 45 3.2 4.8 0.00 0.00 0.00 53 1021.5
20230208122050 2 90 1.6 4.8 0.00 0.00 0.00 53 1021.5
20230208121550 2 90 0.0 3.2 0.00 0.00 0.00 53 1021.6
20230208121050 2 158 1.6 3.2 0.00 0.00 0.00 53 1021.6
20230208120547 2 23 1.6 3.2 0.00 0.00 0.00 53 1021.7
20230208120050 2 338 1.6 1.6 0.00 0.00 0.00 53 1021.8
20230208115548 2 45 1.6 1.6 0.00 0.00 0.00 53 1021.8
20230208115050 2 68 1.6 1.6 0.00 0.00 0.00 52 1021.8
20230208114547 2 113 1.6 1.6 0.00 0.00 0.00 52 1021.9
20230208114051 2 68 1.6 1.6 0.00 0.00 0.00 52 1022.0
20230208113547 2 45 0.0 1.6 0.00 0.00 0.00 52 1022.0
20230208113050 2 68 0.0 1.6 0.00 0.00 0.00 52 1022.0
20230208112551 2 248 0.0 1.6 0.00 0.00 0.00 52 1021.9
20230208112047 2 248 0.0 1.6 0.00 0.00 0.00 52 1021.9
20230208111550 2 68 0.0 1.6 0.00 0.00 0.00 52 1021.9
20230208111048 3 45 0.0 1.6 0.00 0.00 0.00 52 1022.0
20230208110547 3 45 1.6 3.2 0.00 0.00 0.00 52 1022.0
20230208110047 3 68 1.6 3.2 0.00 0.00 0.00 51 1022.1
20230208105551 3 90 1.6 1.6 0.00 0.00 0.00 51 1022.1
20230208105050 3 113 1.6 1.6 0.00 0.00 0.00 51 1022.1
20230208104547 3 135 1.6 1.6 0.00 0.00 0.00 51 1022.2
20230208104047 3 90 3.2 3.2 0.00 0.00 0.00 51 1022.2
20230208103550 3 45 3.2 4.8 0.00 0.00 0.00 51 1022.2
20230208103047 3 68 1.6 3.2 0.00 0.00 0.00 51 1022.2
20230208102548 3 113 1.6 1.6 0.00 0.00 0.00 50 1022.4
20230208102047 3 23 1.6 1.6 0.00 0.00 0.00 50 1022.4
20230208101550 3 45 1.6 3.2 0.00 0.00 0.00 50 1022.4
20230208101048 3 45 1.6 3.2 0.00 0.00 0.00 50 1022.5
20230208100550 3 68 1.6 3.2 0.00 0.00 0.00 50 1022.4
20230208100047 3 68 1.6 1.6 0.00 0.00 0.00 50 1022.4
20230208095548 3 45 1.6 3.2 0.00 0.00 0.00 50 1022.4
20230208095050 3 68 1.6 3.2 0.00 0.00 0.00 49 1022.5
20230208094550 3 90 0.0 1.6 0.00 0.00 0.00 49 1022.8
20230208094051 4 113 0.0 0.0 0.00 0.00 0.00 49 1022.9
20230208093547 4 203 1.6 1.6 0.00 0.00 0.00 49 1022.9
20230208093047 4 338 0.0 4.8 0.00 0.00 0.00 49 1022.9
20230208092548 4 135 0.0 1.6 0.00 0.00 0.00 49 1022.8
20230208092047 4 45 1.6 1.6 0.00 0.00 0.00 48 1022.8
20230208091547 4 180 3.2 4.8 0.00 0.00 0.00 48 1022.8
20230208091050 5 248 3.2 4.8 0.00 0.00 0.00 48 1022.9
20230208090547 5 45 3.2 4.8 0.00 0.00 0.00 48 1022.8
20230208090050 5 23 1.6 4.8 0.00 0.00 0.00 48 1022.8
20230208085551 5 68 3.2 3.2 0.00 0.00 0.00 48 1022.8
20230208085050 5 45 3.2 4.8 0.00 0.00 0.00 48 1022.8
20230208084550 5 45 3.2 4.8 0.00 0.00 0.00 48 1023.2
20230208084047 5 23 1.6 3.2 0.00 0.00 0.00 48 1023.2
20230208083548 5 315 0.0 1.6 0.00 0.00 0.00 47 1023.3
20230208083050 5 90 0.0 0.0 0.00 0.00 0.00 47 1023.3
20230208082548 5 23 0.0 0.0 0.00 0.00 0.00 47 1023.6
20230208082050 5 23 1.6 1.6 0.00 0.00 0.00 47 1023.6
20230208081547 5 23 3.2 3.2 0.00 0.00 0.00 47 1023.6
20230208081047 5 90 3.2 4.8 0.00 0.00 0.00 47 1023.7
20230208080550 5 45 3.2 4.8 0.00 0.00 0.00 47 1023.3
20230208080051 5 90 3.2 4.8 0.00 0.00 0.00 46 1023.3
20230208075551 6 68 3.2 3.2 0.00 0.00 0.00 46 1023.4
20230208075047 6 45 3.2 3.2 0.00 0.00 0.00 46 1023.4
20230208074547 6 45 3.2 3.2 0.00 0.00 0.00 45 1023.2
20230208074047 6 68 3.2 3.2 0.00 0.00 0.00 45 1023.2
20230208073551 6 23 3.2 4.8 0.00 0.00 0.00 45 1023.2
20230208073050 6 45 1.6 4.8 0.00 0.00 0.00 45 1023.2
20230208072551 6 90 3.2 3.2 0.00 0.00 0.00 45 1023.3
20230208072050 6 68 3.2 4.8 0.00 0.00 0.00 45 1023.3
20230208071550 6 68 3.2 4.8 0.00 0.00 0.00 44 1023.4
20230208071047 6 68 1.6 4.8 0.00 0.00 0.00 44 1023.4
20230208070550 6 23 0.0 0.0 0.00 0.00 0.00 43 1023.3
20230208070048 6 23 0.0 0.0 0.00 0.00 0.00 43 1023.4
20230208065551 7 45 1.6 1.6 0.00 0.00 0.00 43 1023.4
20230208065050 7 68 1.6 4.8 0.00 0.00 0.00 43 1023.4
20230208064550 7 45 1.6 4.8 0.00 0.00 0.00 43 1023.6
20230208064047 7 90 1.6 3.2 0.00 0.00 0.00 42 1023.6
20230208063547 7 68 0.0 1.6 0.00 0.00 0.00 42 1023.6
20230208063050 7 135 0.0 1.6 0.00 0.00 0.00 41 1023.7
20230208062548 7 135 1.6 1.6 0.00 0.00 0.00 41 1023.6
20230208062047 8 23 3.2 3.2 0.00 0.00 0.00 41 1023.6
20230208061547 8 315 3.2 6.4 0.00 0.00 0.00 41 1023.6
20230208061047 8 338 3.2 3.2 0.00 0.00 0.00 41 1023.6
20230208060550 8 338 4.8 6.4 0.00 0.00 0.00 41 1023.6
20230208060047 8 23 4.8 8.0 0.00 0.00 0.00 41 1023.6
20230208055551 8 23 4.8 6.4 0.00 0.00 0.00 41 1023.6
20230208055047 8 0 4.8 6.4 0.00 0.00 0.00 40 1023.6
20230208054547 8 338 6.4 6.4 0.00 0.00 0.00 40 1024.0
20230208054050 8 338 6.4 9.7 0.00 0.00 0.00 40 1024.0
20230208053547 8 23 6.4 8.0 0.00 0.00 0.00 40 1024.0
20230208053048 8 315 6.4 11.3 0.00 0.00 0.00 40 1024.0
20230208052550 9 338 4.8 6.4 0.00 0.00 0.00 39 1023.8
20230208052051 9 23 6.4 9.7 0.00 0.00 0.00 39 1023.9
20230208051550 9 23 4.8 8.0 0.00 0.00 0.00 40 1023.9
20230208051050 9 45 4.8 6.4 0.00 0.00 0.00 40 1023.9
20230208050547 9 45 4.8 8.0 0.00 0.00 0.00 40 1024.2
20230208050047 9 338 4.8 8.0 0.00 0.00 0.00 40 1024.2
20230208045550 9 203 4.8 6.4 0.00 0.00 0.00 40 1024.2
20230208045047 8 23 6.4 8.0 0.00 0.00 0.00 40 1024.3
20230208044551 8 23 6.4 9.7 0.00 0.00 0.00 40 1023.9
20230208044050 8 0 4.8 9.7 0.00 0.00 0.00 40 1023.9
20230208043547 8 23 4.8 12.9 0.00 0.00 0.00 40 1023.9
20230208043050 8 0 4.8 6.4 0.00 0.00 0.00 40 1024.0
20230208042547 8 338 3.2 4.8 0.00 0.00 0.00 40 1024.1
20230208042047 8 338 3.2 4.8 0.00 0.00 0.00 40 1024.2
20230208041551 8 338 3.2 4.8 0.00 0.00 0.00 40 1024.2
20230208041050 8 180 3.2 3.2 0.00 0.00 0.00 40 1024.2
20230208040547 8 315 3.2 4.8 0.00 0.00 0.00 40 1024.2
20230208040050 8 338 3.2 3.2 0.00 0.00 0.00 40 1024.3
20230208035550 8 315 1.6 3.2 0.00 0.00 0.00 39 1024.3
20230208035050 8 315 1.6 3.2 0.00 0.00 0.00 39 1024.3
20230208034547 8 293 1.6 3.2 0.00 0.00 0.00 39 1023.9
20230208034047 9 270 0.0 3.2 0.00 0.00 0.00 38 1023.9
20230208033547 9 315 1.6 1.6 0.00 0.00 0.00 38 1023.9
20230208033050 9 23 1.6 3.2 0.00 0.00 0.00 38 1023.9
20230208032550 9 23 1.6 3.2 0.00 0.00 0.00 37 1023.8
20230208032047 9 23 1.6 3.2 0.00 0.00 0.00 37 1023.8
20230208031550 9 23 1.6 1.6 0.00 0.00 0.00 37 1023.8
20230208031051 10 45 1.6 1.6 0.00 0.00 0.00 36 1023.8
20230208030547 10 23 0.0 1.6 0.00 0.00 0.00 36 1023.6
20230208030050 10 23 0.0 0.0 0.00 0.00 0.00 35 1023.6
20230208025547 10 203 0.0 1.6 0.00 0.00 0.00 35 1023.6
20230208025047 11 225 0.0 1.6 0.00 0.00 0.00 35 1023.6
20230208024550 11 315 0.0 0.0 0.00 0.00 0.00 34 1023.4
20230208024048 11 293 0.0 0.0 0.00 0.00 0.00 34 1023.3
20230208023547 11 293 1.6 3.2 0.00 0.00 0.00 34 1023.3
20230208023047 11 315 1.6 4.8 0.00 0.00 0.00 33 1023.3
20230208022547 11 113 1.6 3.2 0.00 0.00 0.00 33 1023.4
20230208022047 11 113 1.6 3.2 0.00 0.00 0.00 33 1023.3
20230208021547 11 68 1.6 3.2 0.00 0.00 0.00 33 1023.3
20230208021048 12 315 3.2 3.2 0.00 0.00 0.00 32 1023.3
20230208020550 12 270 3.2 8.0 0.00 0.00 0.00 32 1022.9
20230208020047 12 270 3.2 4.8 0.00 0.00 0.00 32 1022.9
20230208015547 12 338 3.2 4.8 0.00 0.00 0.00 32 1022.8
20230208015050 12 315 3.2 4.8 0.00 0.00 0.00 31 1022.8
20230208014547 12 270 1.6 6.4 0.00 0.00 0.00 31 1022.7
20230208014051 13 293 3.2 4.8 0.00 0.00 0.00 31 1022.7
20230208013547 13 248 4.8 6.4 0.00 0.00 0.00 30 1022.7
20230208013050 13 338 4.8 8.0 0.00 0.00 0.00 30 1022.7
20230208012547 13 270 6.4 8.0 0.00 0.00 0.00 30 1022.2
20230208012047 13 315 6.4 12.9 0.00 0.00 0.00 30 1022.1
20230208011547 13 135 4.8 9.7 0.00 0.00 0.00 30 1022.1
20230208011051 13 338 6.4 6.4 0.00 0.00 0.00 29 1022.1
20230208010548 13 315 8.0 12.9 0.00 0.00 0.00 29 1023.0
20230208010050 14 270 8.0 12.9 0.00 0.00 0.00 29 1022.9
20230208005547 14 338 6.4 9.7 0.00 0.00 0.00 29 1022.9
20230208005047 14 293 6.4 9.7 0.00 0.00 0.00 28 1022.9
20230208004547 14 293 6.4 8.0 0.00 0.00 0.00 28 1022.5
20230208004048 15 315 6.4 12.9 0.00 0.00 0.00 28 1022.5
20230208003547 15 315 6.4 9.7 0.00 0.00 0.00 28 1022.4
20230208003047 15 248 6.4 9.7 0.00 0.00 0.00 28 1022.4
20230208002550 15 338 8.0 12.9 0.00 0.00 0.00 28 1022.1
20230208002050 15 293 9.7 11.3 0.00 0.00 0.00 28 1022.1
20230208001550 15 248 9.7 16.1 0.00 0.00 0.00 27 1022.0
20230208001051 15 293 9.7 12.9 0.00 0.00 0.00 27 1022.0
20230208000548 15 338 8.0 14.5 0.00 0.00 0.00 27 1021.6
20230208000050 15 293 6.4 16.1 0.00 0.00 0.00 27 1021.6
20230207235547 15 23 4.8 8.0 0.00 0.00 0.00 27 1021.6
20230207235047 15 315 8.0 9.7 0.00 0.00 0.00 26 1021.5
20230207234547 15 338 11.3 19.3 0.00 0.00 0.00 26 1021.7
20230207234047 15 270 12.9 19.3 0.00 0.00 0.00 27 1021.7
20230207233547 16 293 11.3 17.7 0.00 0.00 0.00 27 1021.6
20230207233048 16 293 9.7 20.9 0.00 0.00 0.00 27 1021.6
20230207232547 16 315 8.0 17.7 0.00 0.00 0.00 26 1021.7
20230207232047 16 315 8.0 11.3 0.00 0.00 0.00 24 1021.7
20230207231550 16 315 6.4 12.9 0.00 0.00 0.00 23 1021.6
20230207231050 16 315 6.4 12.9 0.00 0.00 0.00 23 1021.6
20230207230549 16 23 8.0 12.9 0.00 0.00 0.00 23 1022.4
20230207230047 16 45 9.7 17.7 0.00 0.00 0.00 21 1022.4
20230207225547 16 68 9.7 16.1 0.00 0.00 0.00 21 1022.3
20230207225047 16 315 9.7 16.1 0.00 0.00 0.00 21 1022.3
20230207224547 16 315 9.7 9.7 0.00 0.00 0.00 21 1022.0
20230207224050 16 315 9.7 17.7 0.00 0.00 0.00 21 1021.9
20230207223550 16 45 6.4 9.7 0.00 0.00 0.00 22 1021.9
20230207223047 16 23 6.4 9.7 0.00 0.00 0.00 23 1021.9
20230207222550 16 338 8.0 9.7 0.00 0.00 0.00 23 1021.4
20230207222050 16 315 6.4 16.1 0.00 0.00 0.00 23 1021.4
20230207221550 16 315 6.4 14.5 0.00 0.00 0.00 23 1021.3
20230207221047 16 23 8.0 14.5 0.00 0.00 0.00 23 1021.3
20230207220547 16 338 8.0 11.3 0.00 0.00 0.00 23 1021.1
20230207220050 16 23 9.7 19.3 0.00 0.00 0.00 23 1021.1
20230207215548 16 0 9.7 19.3 0.00 0.00 0.00 23 1021.0
20230207215050 16 23 8.0 12.9 0.00 0.00 0.00 23 1021.0
20230207214552 16 23 6.4 12.9 0.00 0.00 0.00 24 1020.7
20230207214047 16 23 6.4 12.9 0.00 0.00 0.00 26 1020.6
20230207213551 16 315 9.7 12.9 0.00 0.00 0.00 26 1020.6
20230207213050 16 270 9.7 12.9 0.00 0.00 0.00 25 1020.6
20230207212547 16 45 9.7 11.3 0.00 0.00 0.00 23 1020.6
20230207212049 16 68 8.0 16.1 0.00 0.00 0.00 24 1020.6
20230207211547 16 23 8.0 11.3 0.00 0.00 0.00 24 1020.6
20230207211050 16 23 8.0 14.5 0.00 0.00 0.00 25 1020.5
20230207210547 16 23 8.0 12.9 0.00 0.00 0.00 25 1020.0
20230207210050 16 315 8.0 19.3 0.00 0.00 0.00 26 1020.0
20230207205550 16 23 11.3 17.7 0.00 0.00 0.00 25 1020.0
20230207205050 16 315 11.3 17.7 0.00 0.00 0.00 26 1020.0
20230207204547 16 315 9.7 17.7 0.00 0.00 0.00 27 1020.2
20230207204047 16 270 11.3 17.7 0.00 0.00 0.00 27 1020.2
20230207203547 16 270 12.9 19.3 0.00 0.00 0.00 27 1020.2
20230207203050 16 270 12.9 19.3 0.00 0.00 0.00 27 1020.2
20230207202550 16 270 14.5 20.9 0.00 0.00 0.00 27 1020.1
20230207202047 16 270 12.9 19.3 0.00 0.00 0.00 27 1020.1
20230207201550 16 270 11.3 20.9 0.00 0.00 0.00 27 1020.0
20230207201050 16 180 11.3 9.7 0.00 0.00 0.00 28 1020.0
20230207200547 16 315 12.9 14.5 0.00 0.00 0.00 28 1020.2
20230207200047 16 270 12.9 20.9 0.00 0.00 0.00 28 1020.2
20230207195550 16 270 9.7 12.9 0.00 0.00 0.00 28 1020.2
20230207195047 16 315 9.7 12.9 0.00 0.00 0.00 28 1020.2
20230207194548 16 293 11.3 17.7 0.00 0.00 0.00 28 1020.4
20230207194047 16 270 11.3 16.1 0.00 0.00 0.00 28 1020.4
20230207193547 16 270 12.9 22.5 0.00 0.00 0.00 28 1020.4
20230207193050 16 270 11.3 22.5 0.00 0.00 0.00 28 1020.3
20230207192547 16 293 12.9 16.1 0.00 0.00 0.00 28 1020.8
20230207192050 16 270 11.3 17.7 0.00 0.00 0.00 28 1020.8
20230207191550 16 315 9.7 14.5 0.00 0.00 0.00 28 1020.8
20230207191047 16 270 11.3 14.5 0.00 0.00 0.00 29 1020.7
20230207190547 16 270 11.3 14.5 0.00 0.00 0.00 29 1020.8
20230207190047 16 270 11.3 14.5 0.00 0.00 0.00 29 1020.8
20230207185550 16 270 9.7 16.1 0.00 0.00 0.00 28 1020.7
20230207185047 16 270 8.0 16.1 0.00 0.00 0.00 28 1020.7
20230207184550 17 338 8.0 12.9 0.00 0.00 0.00 27 1020.8
20230207184050 17 315 8.0 12.9 0.00 0.00 0.00 25 1020.8
20230207183550 17 23 6.4 14.5 0.00 0.00 0.00 25 1020.7
20230207183050 17 45 8.0 11.3 0.00 0.00 0.00 25 1020.7
20230207182550 17 315 8.0 11.3 0.00 0.00 0.00 25 1020.7
20230207182050 17 23 8.0 14.5 0.00 0.00 0.00 25 1020.7
20230207181550 17 315 8.0 9.7 0.00 0.00 0.00 25 1020.7
20230207181047 17 135 8.0 9.7 0.00 0.00 0.00 25 1020.6
20230207180547 16 68 9.7 9.7 0.00 0.00 0.00 25 1020.9
20230207180050 16 23 9.7 16.1 0.00 0.00 0.00 25 1020.8
20230207175547 16 23 9.7 12.9 0.00 0.00 0.00 26 1020.8
20230207175047 16 23 11.3 16.1 0.00 0.00 0.00 26 1020.8
20230207174547 16 23 9.7 14.5 0.00 0.00 0.00 26 1020.8
20230207174050 16 338 9.7 22.5 0.00 0.00 0.00 26 1020.8
20230207173547 16 23 9.7 14.5 0.00 0.00 0.00 27 1020.8
20230207173047 16 23 9.7 16.1 0.00 0.00 0.00 27 1020.7
20230207172547 16 45 8.0 19.3 0.00 0.00 0.00 28 1020.8
20230207172047 17 45 8.0 19.3 0.00 0.00 0.00 29 1020.8
20230207171550 16 315 4.8 11.3 0.00 0.00 0.00 29 1020.8
20230207171050 17 23 3.2 11.3 0.00 0.00 0.00 34 1020.8